SCP
0 0 0 0 0 0 0 0 0 0 0 0 1 1 2 3 4 4 4 4 4 4 4 4 6 9 9 7 5 4 4 3 2 2 2 1 1 1 1 1 1 0 0 0
0 0 0 0 0 0 0 0 0 0 1 1 1 1 2 3 4 4 4 4 5 5 4 4 5 6 6 5 5 4 4 4 3 2 2 2 1 1 1 1 1 0 0 0
0 0 0 0 0 0 0 0 0 0 1 1 1 1 1 2 3 3 3 4 5 6 6 4 4 4 4 4 4 5 5 4 3 3 2 2 1 1 1 1 1 0 0 0
0 0 0 0 0 0 0 0 0 0 0 0 0 0 1 1 2 2 2 2 4 6 6 4 4 4 4 4 4 5 5 4 3 3 2 2 1 1 1 1 0 0 0 0
0 0 0 0 0 0 0 0 0 0 0 0 0 0 0 1 1 1 1 1 3 5 5 4 3 3 4 4 4 4 3 3 3 3 2 1 1 1 1 1 1 0 0 0
0 0 0 0 0 0 0 0 0 0 0 0 0 0 0 0 0 1 1 1 2 3 4 3 3 3 3 3 3 3 2 2 2 2 1 1 1 1 1 1 1 1 0 0
0 0 0 0 0 0 0 0 0 0 0 0 0 0 0 0 0 0 1 1 2 2 3 3 2 2 2 2 2 2 1 1 2 2 1 1 1 0 0 0 1 0 0 0
0 0 0 0 0 0 0 0 0 0 0 0 0 0 0 0 0 1 1 1 1 2 2 2 2 2 2 2 1 1 1 1 1 1 1 1 1 0 0 0 0 0 0 0
0 0 0 0 0 0 0 0 0 0 0 0 0 0 1 0 1 1 1 1 1 1 1 2 2 3 2 2 2 2 2 2 2 2 1 1 1 1 0 0 0 0 0 0
0 0 0 0 0 0 0 0 0 0 0 0 0 1 1 0 0 1 1 1 1 1 1 2 3 3 3 2 2 2 3 2 2 2 2 1 1 1 1 1 0 0 0 0
0 0 0 0 0 0 0 0 0 0 0 0 0 0 0 0 0 1 1 1 1 1 1 1 2 3 3 2 2 3 3 3 2 2 2 2 1 1 1 1 1 1 0 0
0 0 0 0 0 0 0 0 0 0 0 0 0 0 0 0 0 0 1 1 1 1 1 1 1 2 2 2 2 2 3 3 2 2 2 2 2 1 1 1 1 1 1 1
0 0 0 0 0 0 0 0 0 0 0 0 0 0 0 0 0 0 1 1 1 1 1 1 1 2 2 2 2 2 2 3 3 3 2 2 2 2 1 1 1 1 1 1
0 0 0 0 0 0 0 0 0 0 0 0 1 1 1 1 0 1 1 1 1 1 1 1 1 2 3 3 2 2 3 3 3 3 3 3 3 2 2 2 2 2 2 2
0 0 0 0 0 0 0 0 0 0 0 1 1 1 1 1 1 1 1 1 1 1 1 1 1 2 3 3 2 2 3 3 3 3 3 4 4 3 3 3 3 3 3 3
0 0 0 0 1 1 1 1 1 1 1 1 2 2 1 1 1 1 1 1 1 1 1 1 1 2 2 2 2 2 2 3 3 3 4 5 5 4 4 3 3 4 4 4
0 0 0 1 1 1 1 1 1 1 2 2 2 2 1 2 2 2 2 2 2 2 1 1 1 1 2 2 2 2 2 3 3 4 4 5 6 5 4 4 3 3 4 4
0 0 1 1 1 1 1 1 1 2 2 2 2 2 2 2 3 2 2 1 2 1 1 1 1 1 1 1 2 2 2 3 3 4 4 4 4 5 4 4 4 3 3 3
0 0 1 1 1 1 1 1 1 2 2 2 2 2 3 3 3 2 2 1 1 1 1 1 1 1 1 1 2 2 3 3 3 4 4 3 3 3 4 4 5 4 3 2
1 0 0 0 1 1 1 1 1 1 1 2 2 3 3 3 3 2 2 1 1 1 1 1 1 1 1 1 2 2 2 2 3 3 3 3 2 2 3 5 6 4 2 1
0 0 0 0 0 0 1 1 1 1 1 2 3 3 2 2 3 2 2 1 1 1 1 1 1 1 1 1 2 2 2 2 2 2 3 3 2 3 3 5 5 3 1 1
0 0 0 0 0 0 1 1 1 1 1 2 3 3 3 3 3 3 2 1 1 1 1 1 1 1 1 1 1 1 1 1 1 1 2 2 3 3 3 4 3 2 1 1
0 0 0 0 0 0 0 0 1 1 1 2 3 3 3 2 3 3 2 2 2 1 1 0 0 0 0 0 1 1 1 1 1 1 1 1 2 2 2 2 2 1 1 1
0 0 0 0 0 0 0 0 1 1 1 2 3 3 2 2 2 2 1 1 1 1 0 0 0 0 0 0 0 0 1 1 1 1 1 1 1 1 1 1 0 0 0 0
0 0 0 0 0 0 0 0 0 1 1 2 2 2 1 1 1 1 0 0 0 0 0 0 0 0 0 0 0 0 0 0 1 1 1 1 0 0 0 0 0 0 0 0
0 0 0 0 0 0 0 0 0 1 1 1 1 1 1 1 0 0 0 0 0 0 0 0 0 0 0 0 0 0 0 0 0 1 1 0 0 0 0 0 0 0 0 0
Wind_Speed
4 2 6 9 9 10 9 10 11 9 4 4 4 3 4 5 5 7 8 8 8 8 7 7 8 11 12 11 11 11 10 8 7 6 5 5 5 4 3 4 5 5 5 5
3 8 13 11 11 11 10 10 9 7 2 2 2 0 2 4 4 6 8 8 9 8 7 8 8 10 11 11 12 11 11 9 8 6 5 4 4 3 3 3 4 5 5 5
10 11 8 10 11 11 10 8 7 6 1 6 4 3 2 2 3 3 5 7 9 12 12 11 10 10 11 11 13 12 11 10 8 7 5 4 3 3 2 3 3 3 5 5
9 12 12 12 13 11 9 10 6 3 3 3 2 2 6 3 2 2 4 6 8 10 10 10 11 11 11 11 11 11 10 10 8 8 7 8 6 5 4 4 3 3 5 5
8 7 8 11 14 10 9 7 2 1 4 3 4 1 7 3 3 3 3 6 8 10 11 11 12 13 12 11 11 10 10 9 8 8 9 8 5 4 3 4 4 4 3 4
11 9 8 10 12 9 6 2 4 6 6 3 2 1 6 3 5 5 3 5 8 10 11 10 10 10 9 10 9 10 10 9 8 8 8 8 8 6 6 5 5 4 2 2
9 11 10 8 9 8 2 3 4 6 4 2 2 2 8 7 6 6 4 5 8 9 11 11 11 11 11 12 11 11 11 9 9 9 8 8 8 8 8 7 6 5 3 3
7 9 8 6 7 7 5 6 7 5 5 3 1 4 8 7 7 3 3 4 7 8 10 12 13 12 12 13 12 12 12 10 9 9 8 7 7 6 5 7 6 6 5 5
8 9 7 7 6 6 4 3 7 7 3 2 3 5 8 5 4 1 3 5 7 8 11 13 13 12 12 13 12 12 12 10 10 10 9 8 8 7 6 7 6 5 5 5
8 6 7 5 2 2 5 5 4 5 5 2 2 4 5 5 4 2 3 5 5 6 9 11 12 12 12 12 12 11 11 11 10 10 9 8 8 8 7 6 7 6 6 6
2 5 6 2 2 5 1 3 5 4 5 6 4 7 7 8 7 6 5 4 5 6 8 9 9 10 10 10 10 11 10 9 9 9 8 8 8 7 7 7 7 7 6 7
1 3 3 6 6 4 4 5 7 6 3 4 5 8 6 6 7 6 6 6 6 7 8 8 9 8 8 8 9 10 11 11 10 10 8 8 8 7 7 7 7 7 7 7
3 4 3 7 7 5 2 1 4 5 5 4 5 7 3 2 5 5 5 6 6 7 7 7 8 9 9 9 9 10 10 10 10 9 9 8 8 8 8 8 7 7 7 7
3 3 5 7 7 3 2 3 3 5 5 4 6 5 4 3 4 4 4 4 5 6 6 7 8 9 9 9 9 9 9 9 9 9 9 10 9 9 9 8 7 7 7 7
4 1 2 5 6 4 3 5 5 4 7 7 6 7 7 5 4 4 4 4 4 4 4 6 7 8 8 8 7 8 8 9 10 10 10 10 9 7 7 6 7 7 7 8
3 1 2 3 3 2 3 5 5 5 4 5 5 3 1 2 3 4 4 5 4 3 3 4 5 6 7 9 9 8 8 8 8 9 10 8 7 7 6 6 6 6 7 7
2 2 1 3 4 3 4 3 3 3 3 7 7 6 6 5 5 5 5 6 5 3 3 3 3 4 5 6 7 8 7 7 7 7 6 6 6 7 8 8 7 8 8 7
5 4 2 2 1 4 6 2 1 3 1 2 5 8 9 9 7 7 5 7 6 6 5 4 3 3 2 3 4 5 5 5 5 4 3 3 4 5 5 5 6 6 5 6
4 5 3 2 3 4 3 1 1 4 1 2 8 11 12 12 12 9 7 7 8 8 7 5 4 5 5 5 5 6 6 5 4 3 2 2 3 3 3 3 4 4 4 5
2 3 4 3 3 5 4 2 1 5 2 1 8 12 11 7 7 4 4 8 9 9 8 8 8 9 9 6 6 9 7 6 5 3 2 2 3 3 3 3 3 2 3 4
2 1 3 3 3 4 4 3 1 4 5 4 7 9 8 6 7 8 8 9 8 10 10 9 10 10 8 7 8 10 8 6 3 3 3 4 3 2 2 2 2 2 2 2
2 2 2 3 3 5 3 1 2 4 5 7 8 9 12 14 14 12 11 10 9 10 10 9 10 10 8 7 9 9 7 4 4 5 5 5 4 3 2 2 1 1 2 2
1 3 2 2 3 1 2 1 1 5 9 8 9 12 15 16 14 12 11 10 9 9 9 8 9 10 9 8 8 8 5 4 5 6 5 4 4 4 3 3 2 1 1 1
2 0 1 0 1 2 3 3 5 8 11 10 12 13 15 16 14 12 10 9 8 9 8 7 9 10 8 8 8 7 5 5 6 6 4 4 4 4 4 3 2 2 1 1
2 0 1 1 1 4 5 5 9 12 12 13 14 13 15 16 14 11 10 9 8 8 6 7 8 8 7 6 7 7 6 6 7 6 5 4 3 3 3 3 2 1 0 1
1 2 3 2 2 4 3 6 11 14 13 15 17 15 12 13 13 11 9 7 7 7 6 7 7 7 6 6 6 6 6 6 7 6 5 4 3 3 2 2 3 4 1 1
Wind_Direction
248 197 240 239 222 228 253 270 277 274 251 144 177 197 196 174 163 169 178 178 175 174 169 160 159 160 160 162 157 154 153 156 151 146 147 147 149 151 148 157 150 143 139 132
296 256 245 249 254 255 262 268 276 287 282 125 131 144 185 183 201 192 186 179 170 162 160 167 165 165 164 165 163 160 161 166 165 163 154 146 143 150 153 154 145 149 146 142
226 248 257 257 266 267 270 253 246 246 64 50 84 359 290 223 213 198 192 185 174 173 172 173 172 172 171 170 168 169 168 169 168 158 136 126 107 103 115 137 148 160 151 146
242 252 257 266 269 262 268 256 238 234 86 10 39 261 280 270 299 213 192 186 180 179 176 176 175 173 179 178 169 166 166 167 167 159 156 156 155 160 172 166 163 160 151 146
237 242 249 257 262 263 255 262 258 123 107 69 13 77 290 330 302 270 220 191 183 182 177 175 176 176 177 173 169 168 166 167 167 167 164 160 157 159 149 146 151 155 152 153
242 252 245 250 267 264 261 309 34 48 71 52 289 147 281 261 253 257 244 203 185 181 175 174 174 167 170 169 170 167 168 172 171 170 167 164 164 159 152 158 165 168 160 160
266 268 260 256 277 295 318 78 17 355 11 256 249 205 255 251 257 236 232 209 185 176 173 173 172 171 172 173 173 171 171 175 174 173 174 173 173 168 169 170 175 172 171 180
225 267 254 238 223 232 249 155 167 209 225 242 277 245 260 271 279 253 197 176 169 172 175 177 178 177 176 178 176 175 177 178 177 178 178 177 176 175 177 178 176 181 185 189
201 240 249 235 228 192 230 227 177 145 135 129 258 281 297 299 319 274 152 153 172 181 181 182 180 179 179 179 182 182 181 181 182 181 178 180 179 178 179 180 179 183 188 189
183 237 265 255 295 297 179 168 96 119 155 189 241 257 249 266 268 257 171 170 178 187 188 185 182 182 184 185 185 184 184 184 184 181 182 187 184 182 180 179 185 188 191 188
166 205 279 325 212 232 227 117 125 128 152 154 202 252 228 214 215 218 203 184 179 193 190 185 183 185 183 182 183 185 185 182 183 183 184 182 183 184 180 184 190 189 188 183
355 144 255 261 258 229 182 177 150 153 202 159 169 253 255 209 209 203 194 194 189 190 180 174 174 175 175 179 183 187 185 184 186 184 182 185 184 182 184 191 193 187 185 184
21 87 19 337 337 4 45 142 141 135 130 159 172 247 265 226 203 200 188 188 182 178 176 174 172 174 178 180 184 184 186 189 186 182 184 189 189 189 195 196 193 187 184 184
79 115 167 210 233 240 276 272 162 127 145 188 201 205 254 251 209 188 187 186 166 161 167 172 176 178 178 178 179 181 185 186 183 184 189 196 199 199 201 198 194 192 188 186
65 121 242 249 243 221 243 243 204 179 180 176 203 192 215 216 196 186 172 157 132 136 145 162 173 178 175 172 178 182 187 187 186 187 196 202 201 201 199 198 200 197 194 196
64 112 339 309 305 311 288 258 223 197 178 170 159 195 184 153 99 78 102 121 112 115 135 143 151 164 172 176 182 184 186 188 183 189 197 197 192 195 199 202 205 202 202 199
146 125 80 272 300 359 278 258 231 197 180 162 179 188 144 116 107 108 94 84 89 93 116 127 141 165 177 180 180 184 187 182 179 187 192 194 192 197 205 205 202 209 208 200
163 144 157 214 10 233 243 280 122 124 96 130 134 142 139 125 103 76 75 89 78 68 74 77 89 116 127 134 139 140 140 145 151 165 171 173 178 187 191 192 201 207 203 197
160 150 147 158 207 252 272 311 123 121 56 124 133 134 130 118 86 55 40 71 81 75 70 63 66 80 79 84 99 100 97 107 119 129 150 163 158 161 179 202 207 204 196 199
61 110 139 163 191 223 238 274 204 109 79 200 144 147 147 129 106 103 71 75 74 71 67 64 59 63 64 62 79 84 81 81 84 94 119 125 131 149 177 206 210 197 185 197
20 58 177 178 205 252 264 289 40 140 192 170 144 142 133 111 117 122 105 86 78 76 71 70 69 64 57 63 80 81 74 69 70 78 80 82 94 127 162 184 191 165 160 165
217 211 201 171 190 240 304 351 170 177 133 127 119 113 104 104 106 103 96 87 81 78 70 69 72 64 50 55 77 78 68 52 54 62 64 60 57 55 62 78 81 118 146 156
228 212 194 191 214 283 16 67 103 118 114 115 121 118 116 110 106 101 95 90 84 81 75 70 74 68 53 46 60 69 51 52 62 60 57 56 54 49 52 67 62 49 85 149
288 272 163 122 38 45 49 65 82 100 105 110 117 119 115 110 108 102 98 93 85 79 76 74 74 70 56 45 50 51 41 51 63 59 46 42 48 40 35 47 61 76 73 90
242 220 121 125 116 55 49 71 91 93 97 101 102 104 109 109 105 103 98 92 89 84 77 76 78 75 63 51 47 42 43 52 56 52 44 39 38 41 37 31 33 54 65 148
264 187 172 198 191 123 105 95 101 98 100 109 107 100 97 104 106 102 96 92 90 86 80 76 73 73 64 58 50 38 41 52 55 45 36 34 30 29 35 34 18 17 19 24